This is the latest recevied weather packets stored in our database for station/object NB9X. If no packets are shown the sender has not sent any weather packets the latest 10 day(s).
| Time | Temp. | Humidity | Pressure | Rain* | Wind** | Luminosity | Snow |
|---|---|---|---|---|---|---|---|
| 1788218068 | 26.11° C | 100% | 1015.1 hPa | 7.11 mm | - | - | - |
| 1788217768 | 26.11° C | 100% | 1015.1 hPa | 6.86 mm | - | - | - |
| 1788217468 | 26.11° C | 100% | 1015.1 hPa | 6.35 mm | - | - | - |
| 1788217168 | 25.56° C | 100% | 1015.1 hPa | 5.84 mm | - | - | - |
| 1788216868 | 25.56° C | 100% | 1015.2 hPa | 5.59 mm | - | - | - |
| 1788216568 | 25.56° C | 100% | 1015.1 hPa | 5.33 mm | - | - | - |
| 1788216268 | 25.56° C | 100% | 1015.1 hPa | 5.08 mm | - | - | - |
| 1788215968 | 25.56° C | 100% | 1015 hPa | 3.05 mm | - | - | - |
| 1788215668 | 27.22° C | 100% | 1015.1 hPa | 0.25 mm | - | - | - |
| 1788215368 | 28.89° C | 100% | 1015 hPa | 0 mm | - | - | - |
| 1788215068 | 29.44° C | 100% | 1015 hPa | 0 mm | - | - | - |
| 1788214768 | 33.33° C | 100% | 1014.9 hPa | 0 mm | - | - | - |
| 1788214468 | 33.89° C | 100% | 1014.6 hPa | 0 mm | - | - | - |
| 1788214168 | 32.78° C | 100% | 1014.5 hPa | 0 mm | - | - | - |
| 1788213868 | 32.78° C | 100% | 1014.3 hPa | 0 mm | - | - | - |
| 1788213568 | 33.33° C | 100% | 1014.3 hPa | 0 mm | - | - | - |
| 1788213268 | 33.33° C | 100% | 1014.2 hPa | 0 mm | - | - | - |
| 1788212968 | 33.33° C | 100% | 1014.3 hPa | 0 mm | - | - | - |
| 1788212668 | 33.89° C | 100% | 1014.4 hPa | 0 mm | - | - | - |
| 1788212368 | 33.89° C | 100% | 1014.3 hPa | 0 mm | - | - | - |
| 1788212068 | 33.33° C | 100% | 1014.3 hPa | 0 mm | - | - | - |
| 1788211768 | 33.33° C | 100% | 1014.1 hPa | 0 mm | - | - | - |
| 1788211468 | 33.33° C | 100% | 1014.2 hPa | 0 mm | - | - | - |
| 1788211168 | 33.89° C | 100% | 1014.3 hPa | 0 mm | - | - | - |
| 1788210868 | 33.33° C | 100% | 1014.4 hPa | 0 mm | - | - | - |
* Rain latest hour (hover to see other rain measurements)
** Current wind speed in m/s (hover to see current wind gust speed)